This demonstration page uses our WeatherBlox Daily Observations layout. Learn more.

38.88101, -77.10428

Hourly Observations for August 7, 2019

Temp ( °F °C ) Dew Point ( °F °C ) Humidity (%) Winds ( mph kmh ) Pressure ( in mb ) Visibility ( mi km ) Precip ( " mm )
12:52 am 00:52 Mostly Cloudy 79 26.1 72 22.2 79 79 S 14 22 29.8 1009 10 16.09344 0 0
1:52 am 01:52 Mostly Cloudy 79 26.1 71 21.7 77 77 S 12 19 29.8 1009 10 16.09344 0 0
2:52 am 02:52 Mostly Cloudy 79 26.1 72 22.2 79 79 S 12 19 29.8 1009 10 16.09344 0 0
3:52 am 03:52 Mostly Cloudy 78 25.6 71 21.7 79 79 SSW 9 15 29.8 1009 10 16.09344 0 0
4:52 am 04:52 Mostly Cloudy 77 25 70 21.1 79 79 SSW 7 11 29.8 1009 10 16.09344 0 0
5:52 am 05:52 Partly Cloudy 76 24.4 70 21.1 82 82 SSW 8 13 29.8 1009 10 16.09344 0 0
6:52 am 06:52 Mostly Cloudy 76 24.4 70 21.1 82 82 SSW 7 11 29.83 1010 10 16.09344 0 0
7:52 am 07:52 Mostly Cloudy 78 25.6 70 21.1 76 76 SW 5 7 29.83 1010 10 16.09344 0 0
8:52 am 08:52 Mostly Cloudy 81 27.2 69 20.6 67 67 Calm 29.83 1010 10 16.09344 0 0
9:52 am 09:52 Mostly Cloudy 84 28.9 71 21.7 65 65 SSE 8 13 29.83 1010 10 16.09344 0 0
10:52 am 10:52 Mostly Cloudy 86 30 71 21.7 61 61 S 10 17 29.8 1009 10 16.09344 0 0
11:52 am 11:52 Mostly Cloudy 88 31.1 70 21.1 55 55 S 10 17 29.8 1009 10 16.09344 0 0
12:52 pm 12:52 Mostly Cloudy 92 33.3 70 21.1 49 49 S 12 19 29.77 1008 10 16.09344 0 0
1:52 pm 13:52 Mostly Cloudy 93 33.9 67 19.4 42 42 S 17 28 29.74 1007 10 16.09344 0 0
2:52 pm 14:52 Mostly Cloudy 93 33.9 70 21.1 47 47 S 16 26 29.71 1006 10 16.09344 0 0
3:18 pm 15:18 Mostly Cloudy with Thunderstorms 93 33.9 69 20.6 46 46 S 17 28 29.71 1006 10 16.09344 0 0
3:39 pm 15:39 Mostly Cloudy with Thunderstorms 84 28.9 65 18.3 53 53 NNW 22 35 29.74 1007 10 16.09344 0 0
3:49 pm 15:49 Mostly Cloudy with Thunderstorms 81 27 64 18 58 58 NNW 20 31 29.74 1007 10 16.09344 0 0
3:52 pm 15:52 Mostly Cloudy with Nearby Thunderstorms 79 26.1 66 18.9 65 65 NNW 31 50 29.71 1006 10 16.09344 0 0
3:59 pm 15:59 Cloudy with Nearby Thunderstorms 77 25 66 18.9 69 69 NNW 24 39 29.77 1008 8 12.874752 0 0
4:03 pm 16:03 Cloudy with Nearby Thunderstorms 74 23.3 68 20 82 82 WNW 17 28 29.77 1008 0.75 1.207008 0.02 0.508
4:05 pm 16:05 Cloudy with Heavy Thunderstorms 73 22.8 68 20 84 84 NW 20 31 29.77 1008 0.5 0.804672 0.12 3.048
4:26 pm 16:26 Cloudy with Thunderstorms 72 22.2 69 20.6 91 91 NNW 14 22 29.77 1008 1.25 2.01168 0.82 20.828
4:29 pm 16:29 Cloudy with Light Thunderstorms 73 22.8 69 20.6 87 87 NNW 13 20 29.77 1008 2.5 4.02336 0.83 21.082
4:34 pm 16:34 Cloudy with Light Thunderstorms 73 22.8 69 20.6 87 87 NW 9 15 29.77 1008 3 4.828032 0.89 22.606
4:36 pm 16:36 Cloudy with Light Thunderstorms 74 23.3 70 21.1 88 88 NW 8 13 29.77 1008 3 4.828032 0.89 22.606
4:40 pm 16:40 Cloudy with Nearby Thunderstorms 74 23.3 70 21.1 88 88 N 14 22 29.77 1008 7 11.265408 0.9 22.86
4:45 pm 16:45 Cloudy with Light Rain 74 23.3 70 21.1 88 88 NNW 14 22 29.77 1008 10 16.09344 0.9 22.86
4:52 pm 16:52 Mostly Cloudy 74 23.3 70 21.1 88 88 N 10 17 29.77 1008 10 16.09344 0.9 22.86
5:11 pm 17:11 Mostly Cloudy with Thunderstorms 75 23.9 69 20.6 82 82 S 7 11 29.77 1008 10 16.09344 0 0
5:27 pm 17:27 Mostly Cloudy 77 25 68 20 74 74 NNE 6 9 29.74 1007 10 16.09344 0 0
5:52 pm 17:52 Mostly Cloudy 79 26.1 69 20.6 72 72 NW 5 7 29.74 1007 10 16.09344 0 0
6:52 pm 18:52 Mostly Cloudy 82 27.8 66 18.9 58 58 Calm 29.8 1009 10 16.09344 0 0
7:05 pm 19:05 Mostly Cloudy with Nearby Thunderstorms 82 27.8 65 18.3 56 56 Calm 29.8 1009 10 16.09344 0 0
7:08 pm 19:08 Mostly Cloudy with Thunderstorms 81 27.2 66 18.9 61 61 Calm 29.8 1009 10 16.09344 0 0
7:28 pm 19:28 Mostly Cloudy with Nearby Thunderstorms 78 25.6 70 21.1 76 76 SE 9 15 29.8 1009 10 16.09344 0 0
7:52 pm 19:52 Mostly Cloudy with Nearby Thunderstorms 77 25 69 20.6 77 77 SE 6 9 29.77 1008 10 16.09344 0 0
8:01 pm 20:01 Mostly Cloudy with Thunderstorms 77 25 69 20.6 77 77 SSE 5 7 29.8 1009 10 16.09344 0 0
8:36 pm 20:36 Mostly Cloudy 76 24.4 69 20.6 79 79 S 6 9 29.8 1009 10 16.09344 0 0
8:52 pm 20:52 Mostly Cloudy 76 24.4 69 20.6 79 79 S 7 11 29.8 1009 10 16.09344 0 0
9:52 pm 21:52 Partly Cloudy 76 24.4 69 20.6 79 79 S 8 13 29.8 1009 10 16.09344 0 0
10:52 pm 22:52 Partly Cloudy 75 23.9 69 20.6 82 82 SW 7 11 29.8 1009 10 16.09344 0 0
11:52 pm 23:52 Partly Cloudy 74 23.3 69 20.6 85 85 SW 7 11 29.8 1009 10 16.09344 0 0

Powered by AerisWeather